Location: Plainartige
(45.6866°N, 1.7993°E)
Time: 17:11:27
(UTC+00:00)

USA 307 - Pass Details

Date: 03 March 2021
Orbit: 567 x 577 km, 54.0° (Epoch: 10 April)

Event Time Altitude Azimuth Distance (km) Brightness Sun altitude
Rises 18:14:44 0° 273° (W) 2,786 9.0 -6.4°
Reaches altitude 10° 18:17:13 10° 284° (WNW) 1,887 7.0 -6.9°
Maximum altitude 18:21:02 31° 347° (NNW) 1,028 4.3 -7.5°
Drops below altitude 10° 18:24:52 10° 50° (NE) 1,884 5.1 -8.2°
Enters shadow 18:25:45 - 55° (NE) 2,192 5.4 -8.3°
